| time (UTC) | temp C | wind direction | speed KPH | gust KPH | rain 1hr cm | rain 24hr cm | rain mn cm | humidity % | barometer mb |
| 20260507133034 | 25 | 186 | 9.7 | 14.5 | 0.00 | 0.00 | 0.00 | 74 | 1016.1 |
| 20260507131003 | 25 | 176 | 6.4 | 9.7 | 0.00 | 0.00 | 0.00 | 77 | 1016.2 |
| 20260507125933 | 25 | 176 | 6.4 | 9.7 | 0.00 | 0.00 | 0.00 | 77 | 1016.3 |
| 20260507124948 | 24 | 178 | 6.4 | 9.7 | 0.00 | 0.00 | 0.00 | 78 | 1016.3 |
| 20260507123924 | 24 | 203 | 9.7 | 11.3 | 0.00 | 0.00 | 0.00 | 78 | 1016.3 |
| 20260507122859 | 23 | 200 | 9.7 | 12.9 | 0.00 | 0.00 | 0.00 | 80 | 1016.3 |
| 20260507121847 | 23 | 190 | 8.0 | 12.9 | 0.00 | 0.00 | 0.00 | 80 | 1016.2 |
| 20260507115730 | 23 | 198 | 6.4 | 9.7 | 0.00 | 0.00 | 0.00 | 82 | 1016.2 |
| 20260507114746 | 23 | 209 | 4.8 | 6.4 | 0.00 | 0.00 | 0.00 | 83 | 1016.2 |
| 20260507113724 | 23 | 213 | 6.4 | 8.0 | 0.00 | 0.00 | 0.00 | 83 | 1016.1 |
| 20260507112719 | 22 | 215 | 6.4 | 8.0 | 0.00 | 0.00 | 0.00 | 83 | 1016.0 |
| 20260507111718 | 22 | 233 | 8.0 | 11.3 | 0.00 | 0.00 | 0.00 | 83 | 1015.9 |
| 20260507110717 | 22 | 228 | 8.0 | 11.3 | 0.00 | 0.00 | 0.00 | 82 | 1015.8 |
| 20260507105649 | 22 | 223 | 9.7 | 14.5 | 0.00 | 0.00 | 0.00 | 81 | 1015.8 |
| 20260507104701 | 23 | 232 | 8.0 | 14.5 | 0.00 | 0.00 | 0.00 | 81 | 1015.6 |
| 20260507103633 | 23 | 214 | 6.4 | 9.7 | 0.00 | 0.00 | 0.00 | 81 | 1015.6 |
| 20260507102615 | 23 | 211 | 6.4 | 9.7 | 0.00 | 0.00 | 0.00 | 81 | 1015.5 |
| 20260507101623 | 23 | 219 | 8.0 | 12.9 | 0.00 | 0.00 | 0.00 | 81 | 1015.4 |
| 20260507100630 | 23 | 229 | 9.7 | 12.9 | 0.00 | 0.00 | 0.00 | 81 | 1015.0 |
| 20260507095647 | 23 | 210 | 9.7 | 12.9 | 0.00 | 0.00 | 0.00 | 80 | 1014.8 |
| 20260507094629 | 23 | 200 | 6.4 | 9.7 | 0.00 | 0.00 | 0.00 | 80 | 1014.8 |
| 20260507093553 | 23 | 184 | 4.8 | 8.0 | 0.00 | 0.00 | 0.00 | 81 | 1014.7 |
| 20260507092533 | 23 | 208 | 4.8 | 6.4 | 0.00 | 0.00 | 0.00 | 81 | 1014.8 |
| 20260507091555 | 23 | 221 | 3.2 | 6.4 | 0.00 | 0.00 | 0.00 | 81 | 1014.9 |
| 20260507085425 | 23 | 227 | 0.0 | 0.0 | 0.00 | 0.00 | 0.00 | 81 | 1014.7 |
| 20260507084416 | 23 | 219 | 3.2 | 8.0 | 0.00 | 0.00 | 0.00 | 81 | 1014.5 |
| 20260507083354 | 23 | 212 | 4.8 | 8.0 | 0.00 | 0.00 | 0.00 | 81 | 1014.4 |
| 20260507082323 | 23 | 209 | 4.8 | 6.4 | 0.00 | 0.00 | 0.00 | 81 | 1014.4 |
| 20260507081332 | 23 | 195 | 4.8 | 6.4 | 0.00 | 0.00 | 0.00 | 81 | 1014.4 |
| 20260507080257 | 23 | 216 | 3.2 | 6.4 | 0.00 | 0.00 | 0.00 | 81 | 1014.4 |
| 20260507075244 | 23 | 223 | 3.2 | 4.8 | 0.00 | 0.00 | 0.00 | 81 | 1014.4 |
| 20260507074208 | 23 | 205 | 4.8 | 6.4 | 0.00 | 0.00 | 0.00 | 81 | 1014.5 |
| 20260507073206 | 23 | 209 | 4.8 | 8.0 | 0.00 | 0.00 | 0.00 | 81 | 1014.6 |
| 20260507071055 | 23 | 212 | 9.7 | 11.3 | 0.00 | 0.00 | 0.00 | 81 | 1014.8 |
| 20260507070032 | 23 | 190 | 6.4 | 11.3 | 0.00 | 0.00 | 0.00 | 81 | 1014.8 |
| 20260507065026 | 23 | 193 | 4.8 | 9.7 | 0.00 | 0.00 | 0.00 | 80 | 1015.0 |
| 20260507064000 | 23 | 243 | 8.0 | 11.3 | 0.00 | 0.00 | 0.00 | 80 | 1015.2 |
| 20260507062952 | 23 | 248 | 6.4 | 11.3 | 0.00 | 0.00 | 0.00 | 80 | 1015.4 |
| 20260507062010 | 23 | 232 | 6.4 | 9.7 | 0.00 | 0.00 | 0.00 | 79 | 1015.4 |
| 20260507061006 | 24 | 237 | 8.0 | 11.3 | 0.00 | 0.00 | 0.00 | 79 | 1015.4 |
| 20260507060014 | 24 | 209 | 8.0 | 11.3 | 0.00 | 0.00 | 0.00 | 79 | 1015.4 |
| 20260507054957 | 24 | 193 | 9.7 | 12.9 | 0.00 | 0.00 | 0.00 | 79 | 1015.4 |
| 20260507053946 | 24 | 216 | 9.7 | 16.1 | 0.00 | 0.00 | 0.00 | 78 | 1015.6 |
| 20260507052911 | 25 | 228 | 11.3 | 17.7 | 0.00 | 0.00 | 0.00 | 77 | 1015.7 |
| 20260507051847 | 26 | 232 | 11.3 | 19.3 | 0.00 | 0.00 | 0.00 | 75 | 1015.9 |
| 20260507050817 | 26 | 158 | 9.7 | 19.3 | 0.00 | 0.00 | 0.00 | 74 | 1016.0 |
| 20260507045749 | 26 | 143 | 9.7 | 19.3 | 0.00 | 0.00 | 0.00 | 74 | 1016.0 |
| 20260507044747 | 26 | 142 | 11.3 | 19.3 | 0.00 | 0.00 | 0.00 | 73 | 1015.9 |
| 20260507041444 | 26 | 142 | 9.7 | 17.7 | 0.00 | 0.00 | 0.00 | 73 | 1015.6 |
| 20260507035346 | 26 | 139 | 9.7 | 19.3 | 0.00 | 0.00 | 0.00 | 72 | 1015.9 |
| 20260507033225 | 26 | 156 | 8.0 | 19.3 | 0.00 | 0.00 | 0.00 | 73 | 1015.9 |
| 20260507032247 | 26 | 137 | 8.0 | 19.3 | 0.00 | 0.00 | 0.00 | 73 | 1015.9 |
| 20260507031240 | 26 | 95 | 11.3 | 19.3 | 0.00 | 0.00 | 0.00 | 73 | 1015.8 |
| 20260507030226 | 26 | 148 | 9.7 | 19.3 | 0.00 | 0.00 | 0.00 | 73 | 1015.6 |
| 20260507023020 | 26 | 105 | 8.0 | 17.7 | 0.00 | 0.00 | 0.00 | 73 | 1015.9 |
| 20260507015713 | 26 | 95 | 8.0 | 17.7 | 0.00 | 0.00 | 0.00 | 72 | 1016.0 |
| 20260507013625 | 26 | 131 | 9.7 | 17.7 | 0.00 | 0.00 | 0.00 | 71 | 1016.1 |
| 20260507012632 | 26 | 117 | 8.0 | 14.5 | 0.00 | 0.00 | 0.00 | 71 | 1016.0 |
| 20260507011653 | 26 | 86 | 8.0 | 16.1 | 0.00 | 0.00 | 0.00 | 70 | 1015.9 |
| 20260507010704 | 26 | 132 | 8.0 | 16.1 | 0.00 | 0.00 | 0.00 | 69 | 1015.8 |
| 20260507005639 | 26 | 140 | 9.7 | 16.1 | 0.00 | 0.00 | 0.00 | 69 | 1015.8 |
| 20260507004612 | 26 | 121 | 9.7 | 19.3 | 0.00 | 0.00 | 0.00 | 69 | 1015.7 |
| 20260507003626 | 26 | 142 | 9.7 | 19.3 | 0.00 | 0.00 | 0.00 | 69 | 1015.7 |
| 20260507002601 | 26 | 134 | 9.7 | 17.7 | 0.00 | 0.00 | 0.00 | 69 | 1015.5 |
| 20260507000500 | 26 | 113 | 8.0 | 19.3 | 0.00 | 0.00 | 0.00 | 68 | 1015.3 |
| 20260506235457 | 26 | 111 | 8.0 | 16.1 | 0.00 | 0.00 | 0.00 | 68 | 1015.4 |
| 20260506234507 | 27 | 132 | 8.0 | 17.7 | 0.00 | 0.00 | 0.00 | 66 | 1015.5 |
| 20260506233501 | 27 | 123 | 8.0 | 17.7 | 0.00 | 0.00 | 0.00 | 65 | 1015.5 |
| 20260506232523 | 27 | 93 | 8.0 | 17.7 | 0.00 | 0.00 | 0.00 | 65 | 1015.6 |
| 20260506231511 | 27 | 128 | 8.0 | 17.7 | 0.00 | 0.00 | 0.00 | 64 | 1015.5 |
| 20260506230532 | 27 | 145 | 8.0 | 17.7 | 0.00 | 0.00 | 0.00 | 63 | 1015.5 |
| 20260506224321 | 27 | 0 | 9.7 | 17.7 | 0.00 | 0.00 | 0.00 | 58 | 1015.5 |
| 20260506223325 | 27 | 100 | 9.7 | 17.7 | 0.00 | 0.00 | 0.00 | 55 | 1015.5 |
| 20260506222322 | 27 | 92 | 8.0 | 17.7 | 0.00 | 0.00 | 0.00 | 58 | 1015.6 |
| 20260506221315 | 27 | 143 | 9.7 | 17.7 | 0.00 | 0.00 | 0.00 | 59 | 1015.7 |
| 20260506220311 | 27 | 115 | 8.0 | 19.3 | 0.00 | 0.00 | 0.00 | 64 | 1015.7 |
| 20260506214151 | 27 | 139 | 11.3 | 17.7 | 0.00 | 0.00 | 0.00 | 63 | 1015.6 |
| 20260506213129 | 27 | 113 | 9.7 | 17.7 | 0.00 | 0.00 | 0.00 | 66 | 1015.6 |
| 20260506210932 | 27 | 123 | 11.3 | 19.3 | 0.00 | 0.00 | 0.00 | 67 | 1015.8 |
| 20260506205917 | 27 | 103 | 11.3 | 19.3 | 0.00 | 0.00 | 0.00 | 68 | 1015.8 |
| 20260506204937 | 27 | 160 | 9.7 | 22.5 | 0.00 | 0.00 | 0.00 | 68 | 1015.8 |
| 20260506203935 | 27 | 96 | 8.0 | 22.5 | 0.00 | 0.00 | 0.00 | 67 | 1015.8 |
| 20260506202931 | 27 | 100 | 11.3 | 20.9 | 0.00 | 0.00 | 0.00 | 69 | 1015.8 |
| 20260506201946 | 27 | 101 | 9.7 | 19.3 | 0.00 | 0.00 | 0.00 | 68 | 1015.8 |
| 20260506200932 | 27 | 101 | 9.7 | 19.3 | 0.00 | 0.00 | 0.00 | 68 | 1015.8 |
| 20260506195857 | 27 | 123 | 9.7 | 20.9 | 0.00 | 0.00 | 0.00 | 69 | 1015.8 |
| 20260506194826 | 27 | 100 | 11.3 | 20.9 | 0.00 | 0.00 | 0.00 | 67 | 1015.9 |
| 20260506192632 | 27 | 120 | 9.7 | 17.7 | 0.00 | 0.00 | 0.00 | 69 | 1016.1 |
| 20260506191621 | 27 | 109 | 9.7 | 17.7 | 0.00 | 0.00 | 0.00 | 70 | 1016.1 |
| 20260506190600 | 27 | 127 | 9.7 | 20.9 | 0.00 | 0.00 | 0.00 | 70 | 1016.3 |
| 20260506185607 | 27 | 106 | 11.3 | 20.9 | 0.00 | 0.00 | 0.00 | 71 | 1016.4 |
| 20260506183414 | 27 | 131 | 12.9 | 19.3 | 0.00 | 0.00 | 0.00 | 71 | 1016.5 |
| 20260506182426 | 27 | 105 | 11.3 | 17.7 | 0.00 | 0.00 | 0.00 | 73 | 1016.6 |
| 20260506181428 | 27 | 129 | 11.3 | 19.3 | 0.00 | 0.00 | 0.00 | 73 | 1016.8 |
| 20260506180424 | 27 | 113 | 11.3 | 19.3 | 0.00 | 0.00 | 0.00 | 74 | 1016.9 |
| 20260506175440 | 27 | 134 | 9.7 | 19.3 | 0.00 | 0.00 | 0.00 | 73 | 1017.0 |
| 20260506174459 | 27 | 87 | 12.9 | 19.3 | 0.00 | 0.00 | 0.00 | 74 | 1016.9 |
| 20260506173448 | 27 | 114 | 9.7 | 19.3 | 0.00 | 0.00 | 0.00 | 74 | 1017.0 |
| 20260506171230 | 27 | 114 | 9.7 | 17.7 | 0.00 | 0.00 | 0.00 | 75 | 1017.2 |
| 20260506170201 | 27 | 153 | 9.7 | 17.7 | 0.00 | 0.00 | 0.00 | 75 | 1017.1 |
| 20260506165204 | 26 | 89 | 8.0 | 16.1 | 0.00 | 0.00 | 0.00 | 75 | 1017.3 |
| 20260506164159 | 26 | 94 | 8.0 | 16.1 | 0.00 | 0.00 | 0.00 | 75 | 1017.3 |
| 20260506163128 | 26 | 129 | 9.7 | 16.1 | 0.00 | 0.00 | 0.00 | 75 | 1017.3 |
| 20260506162122 | 27 | 90 | 6.4 | 17.7 | 0.00 | 0.00 | 0.00 | 75 | 1017.3 |
| 20260506160003 | 26 | 140 | 9.7 | 19.3 | 0.00 | 0.00 | 0.00 | 75 | 1017.4 |
| 20260506153911 | 26 | 86 | 9.7 | 16.1 | 0.00 | 0.00 | 0.00 | 75 | 1017.5 |
| 20260506151720 | 26 | 147 | 9.7 | 16.1 | 0.00 | 0.00 | 0.00 | 75 | 1017.4 |
| 20260506150732 | 26 | 130 | 8.0 | 14.5 | 0.00 | 0.00 | 0.00 | 74 | 1017.4 |
| 20260506145732 | 26 | 116 | 8.0 | 14.5 | 0.00 | 0.00 | 0.00 | 75 | 1017.3 |
| 20260506144738 | 26 | 91 | 9.7 | 17.7 | 0.00 | 0.00 | 0.00 | 75 | 1017.3 |
| 20260506143732 | 26 | 140 | 8.0 | 19.3 | 0.00 | 0.00 | 0.00 | 76 | 1017.3 |
| 20260506142740 | 26 | 113 | 9.7 | 19.3 | 0.00 | 0.00 | 0.00 | 76 | 1017.3 |
| 20260506141734 | 26 | 132 | 9.7 | 16.1 | 0.00 | 0.00 | 0.00 | 76 | 1017.1 |
| 20260506140700 | 26 | 132 | 9.7 | 19.3 | 0.00 | 0.00 | 0.00 | 76 | 1017.2 |
| 20260506135627 | 26 | 149 | 9.7 | 19.3 | 0.00 | 0.00 | 0.00 | 76 | 1017.1 |
| 20260506134610 | 26 | 140 | 9.7 | 16.1 | 0.00 | 0.00 | 0.00 | 77 | 1017.0 |
| 20260506133610 | 26 | 173 | 8.0 | 19.3 | 0.00 | 0.00 | 0.00 | 77 | 1017.0 |